Hourly Data Report for June 22, 2021

VINELAND STATION RCS
ONTARIO
Current Station Operator: ECCC - MSC

43°11'00.000" N
79°24'00.000" W
79.20 m
6139148
71171
XVN

Download Data

Hourly Data (June 2021)
Hourly Data Report for June 22, 2021
TIME
LST
Temp Definition
°C
Dew Point Definition
°C
Rel Hum Definition
%
Precip. Amount Definition
mm

Wind Dir Definition
10's deg

Wind Spd Definition
km/h
Visibility Definition
km
Stn Press Definition
kPa
Hmdx Definition


Wind Chill Definition


Weather Definition


00:00 13.4 8.4 72 0.0 30 21   99.81     LegendNANA
01:00 12.9 7.9 72 0.0 30 21   99.85     LegendNANA
02:00 12.3 7.4 72 0.0 30 22   99.87     LegendNANA
03:00 12.0 7.3 73 0.0 29 14   99.90     LegendNANA
04:00 11.8 7.2 74 0.0 29 14   99.99     LegendNANA
05:00 11.7 7.1 74 0.0 29 14   100.01     LegendNANA
06:00 11.9 7.7 76 0.0 29 14   100.09     LegendNANA
07:00 12.5 7.7 72 0.0 30 13   100.11     LegendNANA
08:00 13.2 8.4 72 0.0 30 12   100.22     LegendNANA
09:00 14.0 8.2 68 0.0 30 10   100.28     LegendNANA
10:00 14.8 7.8 63 0.0 32 11   100.28     LegendNANA
11:00 15.7 8.2 61 0.0 33 14   100.31     LegendNANA
12:00 15.9 6.8 55 0.0 33 9   100.32     LegendNANA
13:00 17.4 6.6 49 0.0 33 10   100.28     LegendNANA
14:00 18.2 5.7 44 0.0 34 11   100.26     LegendNANA
15:00 18.3 4.5 40 0.0 31 8   100.24     LegendNANA
16:00 19.2 5.8 42 0.0 31 16   100.25     LegendNANA
17:00 18.5 5.3 42 0.0 31 11   100.28     LegendNANA
18:00 18.6 5.2 41 0.0 31 16   100.32     LegendNANA
19:00 17.8 4.9 43 0.0 30 15   100.38     LegendNANA
20:00 16.6 5.5 48 0.0 30 13   100.45     LegendNANA
21:00 14.5 4.5 51 0.0 23 7   100.53     LegendNANA
22:00 13.8 4.3 53 0.0 23 8   100.59     LegendNANA
23:00 13.7 5.0 56 0.0 23 9   100.61     LegendNANA

Notes on Data Quality.

Legend

  • E = Estimated
  • M = Missing
  • NA = Not Available*
  • [empty] = Indicates an unobserved value
Date modified: